Wind_Speed
16 11 12 15 16 21 27 29 28 33 42 47 48 45 44 51 66 74 76 73 76 76 76 76 73 68 65 62 56 54 51 48 47 39 43 40 42 39 41 44 41 46 46 43
13 7 19 20 24 29 32 35 33 37 44 50 47 47 48 52 62 71 79 77 77 78 78 77 75 71 67 65 59 58 56 54 50 41 45 47 46 43 41 45 44 44 47 45
14 17 21 22 20 26 27 29 30 38 39 49 50 55 54 50 55 60 80 82 81 81 79 79 76 72 70 65 60 61 57 52 43 42 48 47 37 50 43 44 44 43 45 45
18 19 21 24 18 22 14 19 24 31 39 45 46 58 56 54 60 57 73 88 83 82 78 80 78 74 73 67 62 58 59 48 56 37 32 37 33 41 43 46 44 46 46 44
16 18 12 14 15 19 19 19 20 25 32 41 34 53 40 45 51 52 67 88 87 85 77 79 79 76 74 70 65 58 54 57 32 38 33 32 33 34 38 48 50 44 43 44
21 14 16 17 19 21 22 23 28 16 17 18 12 25 14 27 37 51 63 87 90 88 78 79 79 77 75 71 62 58 57 54 46 43 40 38 39 33 34 49 50 46 45 44
10 19 18 19 22 22 23 24 29 27 21 23 24 14 7 6 14 28 54 84 94 87 79 78 78 76 74 69 61 56 56 57 55 52 30 42 44 43 36 37 50 52 48 44
19 15 15 18 18 20 21 22 24 27 27 27 31 25 22 16 14 24 53 82 91 87 78 77 77 76 73 67 60 57 56 55 54 50 50 37 47 43 41 46 42 51 48 46
20 21 20 20 19 21 21 18 21 29 28 30 23 22 20 7 9 23 49 77 87 83 76 75 75 74 70 66 59 57 55 51 55 51 48 50 39 35 40 45 42 39 47 46
19 24 18 21 20 19 24 25 18 21 30 15 15 13 8 4 9 16 41 70 80 73 70 69 71 70 67 63 58 55 46 30 40 43 41 44 37 33 20 18 40 42 43 46
20 19 23 22 24 24 27 17 14 11 14 14 19 3 3 13 23 19 32 56 62 59 59 57 66 66 64 59 53 46 50 32 33 38 48 27 27 36 37 37 31 28 32 42
21 24 25 23 27 35 28 13 9 3 14 10 9 9 31 18 33 28 29 41 47 34 45 59 61 60 56 51 41 44 35 53 35 30 33 41 28 28 34 35 30 32 38 37
21 23 22 29 33 39 29 17 12 6 4 2 11 21 30 32 40 41 36 35 26 34 36 30 32 50 47 43 42 29 27 31 29 22 22 18 17 20 21 25 29 32 34 26
21 26 34 38 38 38 30 25 20 15 11 16 17 24 36 41 37 28 27 32 28 28 19 28 34 30 40 41 50 27 23 20 20 27 21 18 21 26 28 30 31 33 23 22
19 21 26 31 32 32 27 24 18 14 17 17 16 21 37 30 24 27 33 29 24 20 18 20 17 17 32 44 42 42 33 23 25 25 25 22 20 21 24 22 24 28 27 26
14 20 20 21 25 33 30 28 30 24 23 24 15 26 37 27 23 19 27 33 32 24 17 21 26 26 20 36 45 39 29 28 30 25 32 31 30 29 29 29 29 31 35 34
12 15 17 18 16 21 28 34 31 30 29 29 26 26 24 35 29 23 20 25 31 30 27 26 30 28 20 22 24 33 34 31 24 23 24 20 19 25 28 31 30 31 34 38
10 12 14 14 11 11 26 27 30 34 32 33 31 26 24 26 29 33 26 24 13 14 10 12 19 22 22 20 24 26 22 25 29 28 27 30 23 25 27 25 24 22 25 25
7 10 10 14 10 13 16 18 20 23 27 28 28 29 27 23 24 26 24 24 22 22 19 19 20 19 22 26 24 25 28 30 34 33 34 30 29 26 27 29 32 32 32 33
7 8 7 8 9 10 11 11 13 16 16 19 19 19 19 21 18 18 16 14 15 17 17 16 16 18 19 21 23 25 25 25 26 28 28 26 26 26 28 30 33 34 35 35
7 7 8 5 5 6 8 8 8 9 11 12 12 12 12 14 11 11 12 12 11 12 13 12 11 11 10 12 14 18 19 22 23 25 27 30 31 31 31 33 34 37 36 37
5 4 5 7 5 4 5 5 7 7 7 8 8 9 9 9 7 7 5 4 3 3 3 5 6 8 10 13 13 15 15 16 18 19 21 20 20 21 23 26 28 29 31 33
5 3 2 3 2 7 8 8 7 5 6 6 6 6 6 6 5 4 3 2 2 1 1 3 5 7 9 11 12 13 16 17 19 21 22 23 24 24 26 27 29 30 30 32
6 8 8 4 3 3 4 6 5 4 4 6 6 6 6 4 2 1 2 3 3 3 5 6 8 10 12 13 14 16 18 19 21 23 24 25 26 27 27 29 30 31 32 34
8 13 14 13 12 11 11 11 13 13 10 10 10 10 12 12 12 13 13 13 13 14 15 16 17 18 19 21 21 22 23 24 26 27 29 30 30 31 32 33 34 35 37 39
13 11 2 13 15 16 17 19 20 19 20 20 18 17 17 19 19 19 22 24 24 25 26 26 27 28 30 31 32 34 34 36 37 38 38 37 37 38 38 39 40 41 43 44
Wind_Direction
272 281 306 282 270 271 273 272 267 266 263 261 271 255 246 241 232 226 224 219 215 215 217 217 214 215 216 216 217 219 222 225 229 224 219 223 231 236 232 230 232 234 231 231
279 305 282 272 280 282 281 279 271 270 274 271 262 256 248 241 237 225 221 217 213 216 215 217 214 215 216 219 217 220 223 229 234 232 217 225 228 233 225 225 229 233 233 233
295 302 298 295 296 299 294 290 283 276 265 264 264 258 255 250 243 235 217 214 211 212 214 215 215 213 216 218 217 220 223 228 228 233 231 223 246 228 224 230 227 233 234 234
310 305 301 301 301 297 315 299 303 289 275 276 270 268 261 251 251 246 217 211 209 210 213 213 214 214 214 219 216 220 223 228 229 238 234 230 246 224 227 233 235 236 233 234
327 324 324 313 308 284 300 283 325 304 293 288 291 270 266 255 245 239 218 207 207 209 210 210 213 214 214 217 217 221 224 228 235 246 238 247 252 235 231 228 236 235 236 237
326 335 319 311 304 298 298 294 292 319 316 334 305 283 308 268 253 238 212 204 204 207 206 208 211 214 215 216 216 219 221 227 227 240 239 243 249 237 250 241 228 230 237 238
328 329 318 310 317 298 291 293 297 292 303 321 330 342 334 269 238 226 208 201 199 205 203 205 209 212 215 215 216 218 221 223 228 234 229 234 244 253 259 248 225 224 234 238
4 12 358 345 332 317 301 300 292 298 304 317 311 323 326 330 263 209 195 195 194 199 200 203 207 211 214 216 217 218 223 225 230 235 243 247 246 245 240 248 234 228 227 238
15 17 8 355 353 350 339 320 299 293 308 314 311 320 325 292 276 201 190 191 191 192 197 201 205 211 213 214 217 219 222 226 232 241 247 246 249 238 233 235 234 236 233 240
14 8 349 332 357 351 346 336 304 286 299 320 301 335 319 73 156 161 184 186 188 188 195 201 205 211 213 214 216 220 219 227 234 241 243 239 241 217 219 218 230 226 233 239
19 4 354 353 5 0 346 326 320 290 296 302 317 286 323 94 117 122 172 182 186 185 194 199 206 211 213 214 218 219 215 217 225 233 238 245 248 245 255 274 281 257 247 251
24 8 11 16 14 6 358 346 352 281 277 313 293 69 117 128 113 119 148 173 181 157 200 202 210 211 212 214 214 217 230 227 247 247 250 249 244 257 270 276 261 268 271 253
27 26 29 32 29 16 35 49 38 352 321 174 114 101 121 114 124 118 128 140 154 179 166 172 211 221 212 212 201 201 224 213 231 245 244 250 237 248 264 263 267 271 275 281
37 39 37 36 29 24 39 60 54 44 84 110 118 100 115 126 129 129 130 140 138 155 174 198 217 220 210 207 204 213 222 257 256 250 263 244 241 245 248 263 263 270 271 265
41 43 40 40 44 41 48 56 58 70 109 138 116 121 132 140 134 137 147 156 164 154 184 164 188 211 216 206 213 220 239 260 224 233 246 243 239 243 241 240 235 237 253 250
30 38 40 40 39 53 57 65 72 82 90 113 124 126 134 138 144 141 151 153 164 171 163 168 167 170 196 213 223 229 241 241 224 224 217 219 225 227 227 244 251 250 254 250
25 36 45 56 45 61 61 65 71 76 89 103 129 114 121 146 163 177 147 147 168 174 179 186 196 220 220 201 212 212 215 233 257 263 254 233 222 234 245 241 242 247 249 260
21 28 43 57 53 41 63 68 70 74 77 79 87 105 125 143 153 168 169 151 186 177 210 215 206 216 215 220 235 236 235 241 252 255 254 260 263 262 265 259 280 286 263 266
2 14 52 62 56 73 74 72 73 77 82 83 90 98 102 118 132 155 171 177 178 190 195 197 213 219 222 230 245 252 254 261 258 257 259 265 266 267 274 274 277 279 283 284
324 347 5 52 69 81 80 74 67 67 68 79 82 85 102 94 106 136 150 163 167 178 184 194 204 217 226 231 238 241 243 244 244 245 247 250 251 255 261 264 266 267 263 253
334 343 350 356 66 74 82 85 72 67 73 68 69 73 76 77 75 87 102 122 136 145 154 166 184 201 215 229 236 239 238 244 247 250 250 248 249 252 255 256 252 249 250 252
322 347 16 335 13 52 62 57 66 74 79 74 65 65 66 69 70 79 88 82 106 138 162 191 206 220 228 242 246 251 251 253 255 260 264 265 264 267 270 272 270 268 267 268
269 299 2 1 7 21 42 60 49 40 64 74 69 65 53 40 36 40 41 31 31 26 227 226 241 252 255 258 259 259 263 266 267 266 266 265 266 266 267 268 270 272 274 272
262 253 253 255 262 298 332 340 356 358 341 337 343 345 348 347 356 338 315 318 307 286 282 280 277 271 269 269 271 270 268 269 269 269 268 268 269 269 271 271 273 275 277 278
279 262 252 253 260 267 280 292 300 301 301 305 300 296 297 302 300 298 292 285 283 282 280 280 277 276 275 273 272 271 270 269 270 270 269 268 268 268 270 271 273 274 275 275
39 36 273 229 241 256 270 276 283 289 295 296 295 289 286 283 282 284 291 289 285 284 285 285 283 283 280 280 280 278 277 276 275 274 273 272 271 269 268 268 269 270 270 272
Height
5571 5572 5573 5572 5571 5570 5569 5568 5570 5572 5564 5562 5563 5565 5574 5575 5580 5596 5611 5625 5636 5648 5658 5667 5678 5688 5699 5708 5718 5724 5731 5736 5741 5745 5751 5752 5759 5762 5764 5769 5774 5778 5781 5783
5570 5571 5569 5567 5566 5562 5561 5559 5561 5558 5553 5547 5552 5552 5558 5559 5563 5578 5590 5607 5622 5632 5645 5656 5668 5678 5689 5699 5708 5714 5722 5725 5728 5738 5744 5749 5750 5755 5757 5759 5765 5769 5773 5776
5568 5569 5564 5561 5560 5556 5552 5551 5550 5546 5542 5536 5537 5532 5539 5547 5546 5554 5570 5589 5604 5616 5633 5645 5657 5667 5678 5688 5698 5706 5714 5720 5724 5730 5734 5737 5740 5743 5747 5751 5756 5762 5765 5768
5567 5564 5560 5557 5555 5551 5549 5545 5542 5537 5531 5527 5522 5510 5519 5530 5530 5533 5549 5566 5589 5601 5618 5633 5646 5657 5668 5679 5690 5698 5706 5712 5715 5722 5725 5730 5733 5735 5742 5747 5749 5752 5757 5760
5566 5560 5556 5554 5551 5547 5544 5540 5537 5530 5523 5515 5510 5496 5503 5510 5512 5516 5527 5547 5568 5587 5606 5624 5636 5647 5658 5669 5681 5691 5697 5703 5711 5713 5718 5722 5725 5730 5733 5737 5740 5744 5748 5751
5561 5558 5554 5550 5546 5542 5538 5535 5531 5525 5517 5510 5503 5493 5490 5495 5497 5498 5510 5530 5554 5572 5595 5612 5626 5637 5649 5661 5674 5684 5691 5696 5704 5708 5711 5715 5716 5721 5723 5727 5730 5734 5740 5743
5561 5557 5551 5546 5542 5537 5533 5529 5525 5520 5512 5506 5499 5494 5490 5488 5486 5487 5497 5514 5539 5566 5585 5602 5617 5629 5640 5654 5666 5676 5683 5689 5693 5695 5694 5707 5710 5714 5715 5717 5720 5724 5731 5735
5560 5554 5548 5544 5539 5533 5528 5525 5521 5514 5509 5504 5497 5491 5489 5485 5481 5479 5486 5505 5530 5558 5578 5595 5610 5622 5635 5648 5660 5668 5674 5681 5685 5692 5696 5700 5703 5703 5706 5710 5712 5716 5721 5726
5558 5555 5549 5543 5537 5531 5524 5519 5516 5510 5505 5499 5495 5490 5486 5480 5477 5477 5483 5502 5527 5553 5574 5589 5604 5617 5629 5642 5654 5662 5669 5676 5680 5684 5690 5693 5696 5695 5699 5700 5706 5709 5714 5717
5561 5556 5550 5544 5537 5529 5521 5515 5511 5508 5503 5500 5497 5493 5488 5485 5482 5483 5491 5508 5533 5555 5575 5589 5601 5611 5624 5637 5648 5657 5666 5670 5675 5679 5684 5685 5689 5689 5691 5694 5697 5701 5707 5710
5562 5557 5551 5543 5535 5528 5520 5512 5507 5506 5506 5504 5501 5498 5493 5491 5491 5497 5508 5522 5543 5560 5572 5587 5597 5609 5621 5633 5643 5652 5659 5663 5669 5671 5676 5679 5679 5683 5685 5688 5692 5694 5695 5699
5564 5558 5552 5545 5536 5527 5516 5509 5508 5506 5508 5505 5504 5504 5499 5499 5504 5513 5525 5537 5553 5569 5578 5589 5598 5606 5619 5630 5640 5647 5654 5659 5663 5667 5670 5673 5675 5677 5679 5681 5685 5686 5687 5687
5569 5562 5556 5547 5541 5529 5517 5512 5511 5509 5510 5507 5510 5509 5509 5514 5521 5531 5542 5554 5563 5573 5583 5593 5600 5605 5616 5626 5636 5644 5649 5655 5656 5659 5662 5665 5667 5671 5673 5676 5676 5678 5680 5680
5573 5567 5558 5550 5544 5536 5526 5521 5518 5516 5515 5515 5517 5518 5521 5526 5532 5541 5550 5560 5570 5579 5587 5594 5599 5605 5615 5623 5632 5638 5640 5644 5648 5650 5656 5659 5661 5666 5667 5669 5671 5673 5673 5674
5576 5572 5567 5561 5555 5549 5539 5531 5528 5526 5524 5525 5526 5529 5532 5536 5541 5549 5558 5567 5573 5581 5586 5593 5600 5605 5614 5621 5627 5632 5636 5642 5646 5646 5651 5654 5655 5659 5661 5663 5665 5666 5667 5668
5579 5576 5573 5568 5563 5558 5551 5545 5540 5536 5533 5533 5534 5538 5542 5546 5551 5556 5562 5569 5577 5584 5588 5595 5601 5606 5611 5617 5623 5629 5634 5638 5643 5642 5645 5645 5648 5652 5653 5656 5658 5660 5661 5661
5583 5580 5578 5574 5570 5567 5563 5556 5553 5550 5547 5545 5543 5545 5549 5555 5559 5562 5567 5573 5579 5585 5591 5597 5601 5603 5608 5614 5619 5624 5628 5632 5634 5635 5637 5639 5640 5644 5647 5649 5651 5652 5652 5654
5585 5582 5581 5578 5576 5571 5568 5568 5565 5560 5558 5556 5556 5557 5559 5561 5565 5568 5573 5576 5581 5584 5590 5595 5599 5603 5607 5610 5615 5618 5621 5625 5628 5630 5633 5636 5635 5637 5640 5641 5642 5643 5644 5644
5587 5585 5583 5581 5581 5579 5575 5574 5573 5571 5569 5566 5567 5567 5568 5569 5569 5572 5576 5580 5583 5586 5590 5594 5597 5599 5603 5606 5609 5612 5616 5619 5622 5624 5626 5627 5629 5631 5633 5634 5635 5634 5635 5636
5589 5587 5586 5584 5584 5583 5580 5578 5577 5575 5574 5574 5573 5574 5574 5574 5576 5576 5578 5582 5583 5586 5589 5592 5595 5598 5600 5603 5605 5607 5609 5612 5614 5616 5617 5619 5621 5622 5623 5625 5626 5626 5626 5626
5590 5589 5587 5586 5585 5585 5584 5582 5581 5582 5582 5578 5578 5578 5577 5577 5579 5580 5581 5583 5584 5586 5588 5590 5593 5596 5598 5600 5602 5604 5605 5607 5608 5610 5611 5612 5613 5614 5615 5615 5616 5616 5617 5617
5592 5591 5589 5587 5586 5587 5587 5586 5586 5585 5583 5583 5582 5582 5582 5583 5583 5583 5584 5585 5586 5588 5589 5590 5592 5595 5596 5598 5600 5600 5601 5602 5604 5604 5605 5605 5605 5605 5606 5607 5608 5609 5608 5608
5592 5591 5590 5590 5588 5586 5586 5587 5587 5586 5586 5586 5586 5586 5585 5585 5585 5586 5587 5588 5588 5588 5590 5591 5592 5593 5595 5596 5597 5597 5598 5599 5599 5599 5599 5600 5600 5600 5601 5601 5601 5601 5600 5601
5589 5589 5588 5589 5588 5587 5587 5586 5587 5587 5587 5586 5585 5586 5587 5588 5588 5589 5589 5589 5590 5590 5590 5590 5591 5592 5592 5593 5593 5594 5595 5595 5595 5595 5594 5594 5592 5592 5592 5593 5592 5591 5590 5590
5586 5586 5586 5585 5585 5586 5586 5585 5585 5585 5586 5586 5585 5585 5584 5584 5585 5585 5586 5586 5587 5587 5588 5587 5587 5588 5588 5587 5588 5588 5588 5588 5588 5588 5587 5586 5586 5585 5583 5582 5581 5580 5580 5579
5587 5583 5581 5581 5582 5583 5583 5583 5582 5582 5581 5581 5581 5582 5583 5583 5583 5583 5583 5583 5583 5583 5583 5583 5583 5582 5582 5582 5581 5581 5580 5580 5580 5579 5578 5576 5574 5573 5573 5572 5571 5570 5570 5569